Hourly Weather Roundup
Issued by NWS Central Illinois

Home | Current Version | Previous Version | Text Only | Print | Product List | Glossary On
Versions: 1 2 3 4 5 6 7 8 9 10 11 12 13 14 15 16 17 18 19 20 21 22 23 24 25 26 27 28 29 30 31 32 33 34 35 36 37 38 39 40 41 42 43 44 45 46 47 48 49 50
000
NZUS43 KILX 222110
HWRILX

AREA WEATHER ROUNDUP
NATIONAL WEATHER SERVICE, LINCOLN IL
300 PM CST MON DEC 22 2014


CITY           SKY/WX    TMP DP  RH WIND       PRES   REMARKS
BLOOMINGTON    LGT RAIN  41  41 100 SE15      29.63F FOG     WCI  33
CHAMPAIGN      LGT RAIN  43  42  97 SE14      29.66F FOG
DECATUR        RAIN      45  44  97 S10       29.63F FOG
FLORA          LGT RAIN  47  46  96 SE12      29.66S
GALESBURG      CLOUDY    39  39  99 SE6       29.57F FOG     WCI  35
JACKSONVILLE   CLOUDY    47  44  92 SE10      29.57F
LACON          DRIZZLE   40  38  94 SE7       29.62S WCI  35
LAWRENCEVILLE  LGT RAIN  49  45  86 SE16      29.70F FOG
LITCHFIELD     LGT RAIN  44  43  95 SE10      29.59F
$$


CITY           SKY/WX    TMP DP  RH WIND       PRES   REMARKS
LINCOLN        LGT RAIN  45  43  95 SE14      29.61F
MACOMB         CLOUDY    41  41 100 SE9       29.58F FOG     WCI  35
MATTOON        LGT RAIN  44  42  93 SE13      29.65F FOG
MT CARMEL AP   LGT RAIN  50  45  81 SE17      29.68F
OLNEY-NOBLE AP RAIN      46  45  93 SE7       29.67S
PARIS          LGT RAIN  45  44  95 SE10G17   29.69F
PEORIA         CLOUDY    43  40  89 SE9       29.60F
PONTIAC        LGT RAIN  40  39  99 E16       29.65F WCI  31
RANTOUL        LGT RAIN  43  42  97 SE14      29.67F
ROBINSON       LGT RAIN  47  45  92 SE12G18   29.69F
SPRINGFIELD    LGT RAIN  45  45 100 SE12      29.60F FOG
TAYLORVILLE    DRIZZLE   43  43 100 SE14      29.60F
$$

...REGIONAL REPORTS...


CITY           SKY/WX    TMP DP  RH WIND       PRES   REMARKS
CHICAGO O`HARE LGT RAIN  36  34  92 E13       29.71F FOG     WCI  27
KANKAKEE       LGT RAIN  38  38  97 SE10      29.71F WCI  31
MOLINE         LGT RAIN  38  36  92 SE9       29.58S FOG     WCI  31
MOUNT VERNON   CLOUDY    48  45  87 SE6       29.63F
PITTSFIELD     CLOUDY    45  43  93 SE9       29.55F
QUINCY         LGT RAIN  43  42  97 SE9       29.53F FOG
ROCKFORD       LGT RAIN  36  34  92 E15       29.66F FOG     WCI  27
$$


CITY           SKY/WX    TMP DP  RH WIND       PRES   REMARKS
BURLINGTON     CLOUDY    40  40 100 SE8       29.54F FOG     WCI  34
CEDAR RAPIDS   CLOUDY    37  37 100 E10       29.54F FOG     WCI  30
DES MOINES     LGT RAIN  41  38  89 SE9       29.47F FOG
KIRKSVILLE     LGT RAIN  42  42 100 SE8       29.49F FOG
OTTUMWA        FOG       38  37  97 SE13      29.51S VSB 1/2 WCI  30
ST LOUIS       LGT RAIN  49  46  90 SE10      29.56F FOG
$$


CITY           SKY/WX    TMP DP  RH WIND       PRES   REMARKS
TERRE HAUTE    LGT RAIN  47  42  83 SE13      29.71F
EVANSVILLE     LGT RAIN  51  45  79 SE8       29.71F
INDIANAPOLIS   LGT RAIN  44  38  79 E8        29.75F
LAFAYETTE      CLOUDY    41  38  89 SE10      29.74F WCI  35
MADISON        LGT RAIN  35  33  92 E13       29.68F FOG     WCI  26
MILWAUKEE      LGT RAIN  36  33  89 E13       29.76F FOG     WCI  27
$$




USA.gov is the U.S. government's official web portal to all federal, state and local government web resources and services.